GAOFEN 12

Last updated on Wed May 26 2021 10:26:32 GMT+0000 (Coordinated Universal Time)

1 44819U 19082A 21145.80448695 .00000025 00000-0 10028-4 0 9995 2 44819 97.8867 168.4661 0001466 67.4631 292.6721 14.80259558 80597

Satellite not in orbit

GAOFEN 12